Regional Weather Roundup
Issued by NWS Charleston, WV

Home | Current Version | Previous Version | Graphics & Text | Print | Product List | Glossary On
Versions: 1 2 3 4 5 6 7 8 9 10 11 12 13 14 15 16 17 18 19 20 21 22 23 24 25 26 27 28 29 30 31 32 33 34 35 36 37 38 39 40 41 42 43 44 45 46 47 48 49 50
000
ASUS41 KRLX 262010
RWRRLX
CRWRWRRLX ALL
West Virginia Regional Weather Roundup
National Weather Service Charleston WV
Issued by National Weather Service Pittsburgh PA
400 PM EDT FRI AUG 26 2016

Note: "fair" indicates few or no clouds below 12,000 feet with no
significant weather and/or obstructions to visibility.

WVZ003-262100-
Northern Panhandle of West Virginia

CITY           SKY/WX    TMP DP  RH WIND       PRES   REMARKS
WHEELING       SUNNY     87  69  54 W7        30.13F HX  91
$$

WVZ009-262100-
Northwest West Virginia

CITY           SKY/WX    TMP DP  RH WIND       PRES   REMARKS
PARKERSBURG    PTSUNNY   88  70  55 NW5       30.13F HX  93
$$

WVZ006-262100-
Western West Virginia

CITY           SKY/WX    TMP DP  RH WIND       PRES   REMARKS
HUNTINGTON     SUNNY     92  72  51 W5        30.10F HX  99
$$

WVZ015-262100-
West Central West Virginia

CITY           SKY/WX    TMP DP  RH WIND       PRES   REMARKS
CHARLESTON     PTSUNNY   89  69  51 SE3       30.11F HX  93
$$

WVZ031-262100-
North Central West Virginia

CITY           SKY/WX    TMP DP  RH WIND       PRES   REMARKS
CLARKSBURG     SUNNY     89  69  51 NW3       30.12F HX  93
MORGANTOWN     PTSUNNY   87  69  54 N6        30.14S HX  91
$$

WVZ035-042-262100-
South Central West Virginia

CITY           SKY/WX    TMP DP  RH WIND       PRES   REMARKS
BECKLEY        SUNNY     84  65  52 N8        30.21F HX  86
BLUEFIELD      MOSUNNY   85  66  53 VRB3      30.23F HX  87
$$

WVZ045-262100-
Greenbrier Valley of West Virginia

CITY           SKY/WX    TMP DP  RH WIND       PRES   REMARKS
LEWISBURG      SUNNY     87  65  47 N8        30.19S HX  88
$$

WVZ047-262100-
Northern Mountains of West Virginia

CITY           SKY/WX    TMP DP  RH WIND       PRES   REMARKS
ELKINS         MOSUNNY   86  66  51 VRB5      30.18F HX  88
$$

WVZ052-262100-
Eastern Panhandle of West Virginia

CITY           SKY/WX    TMP DP  RH WIND       PRES   REMARKS
MARTINSBURG    MOSUNNY   93  67  42 N9        30.04F HX  96
PETERSBURG     MOSUNNY   93  68  43 NW8       30.08F HX  97
$$




USA.gov is the U.S. government's official web portal to all federal, state and local government web resources and services.